Weather History for Lordsburg, NM

Change the Weather History Date:

Saturday, June 7, 2014

  Actual Average Record
Temperature  
Mean Temperature 76 °F -  
Max Temperature 96 °F 93 °F 96 °F (2013)
Min Temperature 57 °F 53 °F 57 °F (2014)
Cooling Degree Days 12    
Growing Degree Days 26 (Base 50)    
Moisture  
Dew Point 13 °F    
Average Humidity 8    
Maximum Humidity 13    
Minimum Humidity 5    
Precipitation  
Precipitation 0.00 in - - ()
Sea Level Pressure  
Sea Level Pressure 29.89 in    
Wind  
Wind Speed 7 mph (West)    
Max Wind Speed 20 mph    
Max Gust Speed 26 mph    
Visibility 10 miles    
Events      
Averages and records for this station are not official NWS values.
T = Trace of Precipitation, MM = Missing Value Source: NWS Daily Summary

Daily Weather History Graph

Daily Weather History Graph

Search for Another Location

Airport:

Trip Planner

Search our weather history database for the weather conditions in past years. The results will help you decide how hot, cold, wet, or windy it might be!

Date:

Astronomy

Jun. 07, 2014 Rise Set
Actual Time 6:07 AM MDT 8:19 PM MDT
Civil Twilight 5:39 AM MDT 8:48 PM MDT
Nautical Twilight 5:04 AM MDT 9:22 PM MDT
Astronomical Twilight 4:27 AM MDT 9:59 PM MDT
Moon 2:57 PM MDT (6/7) 2:11 AM MDT (6/7)
Length of Visible Light 15h 08m
Length of Day
14h 12m
Waxing Gibbous, 68% of the Moon is Illuminated
Jun 7
Waxing Gibbous
Jun 12
Full
Jun 19
Last Quarter
Jun 27
New
Jul 5
First Quarter

Hourly Weather History & Observations

Time (MDT) Temp. Dew Point Humidity Pressure Visibility Wind Dir Wind Speed Gust Speed Precip Events Conditions
12:15 AM 73.4 °F 3.2 °F 6% 29.89 in 10.0 mi WNW 5.8 mph - N/A   Clear
12:35 AM 71.6 °F 3.2 °F 7% 29.89 in 10.0 mi WNW 9.2 mph - N/A   Clear
12:55 AM 69.8 °F 3.2 °F 7% 29.88 in 10.0 mi NW 9.2 mph - N/A   Clear
1:15 AM 71.6 °F 3.2 °F 7% 29.87 in 10.0 mi WNW 11.5 mph - N/A   Clear
1:35 AM 69.8 °F 3.2 °F 7% 29.88 in 10.0 mi WNW 6.9 mph - N/A   Clear
1:55 AM 68.0 °F 3.2 °F 8% 29.88 in 10.0 mi West 6.9 mph - N/A   Clear
2:15 AM 64.4 °F 3.2 °F 9% 29.88 in 10.0 mi West 5.8 mph - N/A   Clear
2:35 AM 64.4 °F 3.2 °F 9% 29.88 in 10.0 mi West 8.1 mph - N/A   Clear
2:55 AM 64.4 °F 3.2 °F 9% 29.87 in 10.0 mi West 9.2 mph - N/A   Clear
3:15 AM 64.4 °F 3.2 °F 9% 29.87 in 10.0 mi WNW 8.1 mph - N/A   Clear
3:35 AM 62.6 °F 3.2 °F 9% 29.87 in 10.0 mi West 9.2 mph - N/A   Clear
3:55 AM 64.4 °F 3.2 °F 9% 29.87 in 10.0 mi WNW 10.4 mph - N/A   Clear
4:15 AM 66.2 °F 3.2 °F 8% 29.88 in 10.0 mi West 9.2 mph - N/A   Clear
4:35 AM 62.6 °F 3.2 °F 9% 29.88 in 10.0 mi West 8.1 mph - N/A   Clear
4:55 AM 62.6 °F 3.2 °F 9% 29.88 in 10.0 mi WNW 8.1 mph - N/A   Clear
5:15 AM 62.6 °F 3.2 °F 9% 29.88 in 10.0 mi WNW 5.8 mph - N/A   Clear
5:55 AM 57.2 °F 3.2 °F 11% 29.90 in 10.0 mi Calm Calm - N/A   Clear
6:15 AM 60.8 °F 3.2 °F 10% 29.91 in 10.0 mi NW 5.8 mph - N/A   Clear
6:35 AM 60.8 °F 3.2 °F 10% 29.91 in 10.0 mi Calm Calm - N/A   Clear
6:55 AM 62.6 °F 5.0 °F 10% 29.92 in 10.0 mi Calm Calm - N/A   Clear
7:15 AM 64.4 °F 5.0 °F 10% 29.93 in 10.0 mi Calm Calm - N/A   Clear
7:35 AM 68.0 °F 5.0 °F 8% 29.94 in 10.0 mi Calm Calm - N/A   Clear
7:55 AM 69.8 °F 6.8 °F 9% 29.95 in 10.0 mi Calm Calm - N/A   Clear
8:15 AM 73.4 °F 6.8 °F 8% 29.95 in 10.0 mi WNW 3.5 mph - N/A   Clear
8:35 AM 77.0 °F 8.6 °F 7% 29.95 in 10.0 mi NW 3.5 mph - N/A   Clear
8:55 AM 78.8 °F 8.6 °F 7% 29.95 in 10.0 mi Calm Calm - N/A   Clear
9:15 AM 80.6 °F 10.4 °F 7% 29.95 in 10.0 mi NW 3.5 mph - N/A   Clear
9:35 AM 82.4 °F 10.4 °F 7% 29.95 in 10.0 mi NW 5.8 mph - N/A   Clear
9:55 AM 84.2 °F 12.2 °F 7% 29.95 in 10.0 mi NW 5.8 mph - N/A   Clear
10:15 AM 86.0 °F 12.2 °F 6% 29.95 in 10.0 mi West 6.9 mph - N/A   Clear
10:35 AM 86.0 °F 12.2 °F 6% 29.95 in 10.0 mi West 6.9 mph - N/A   Clear
11:15 AM 87.8 °F 14.0 °F 6% 29.95 in 10.0 mi WNW 12.7 mph 17.3 mph N/A   Clear
11:35 AM 87.8 °F 17.6 °F 8% 29.95 in 10.0 mi WNW 10.4 mph 17.3 mph N/A   Clear
11:55 AM 89.6 °F 17.6 °F 7% 29.95 in 10.0 mi SSW 6.9 mph - N/A   Clear
12:15 PM 89.6 °F 17.6 °F 7% 29.94 in 10.0 mi West 11.5 mph - N/A   Clear
12:35 PM 91.4 °F 17.6 °F 7% 29.94 in 10.0 mi WSW 5.8 mph - N/A   Clear
12:55 PM 91.4 °F 15.8 °F 6% 29.93 in 10.0 mi West 3.5 mph 17.3 mph N/A   Clear
1:15 PM 93.2 °F 15.8 °F 6% 29.92 in 10.0 mi West 16.1 mph 20.7 mph N/A   Clear
1:35 PM 93.2 °F 14.0 °F 5% 29.92 in 10.0 mi West 9.2 mph - N/A   Clear
1:55 PM 91.4 °F 14.0 °F 6% 29.90 in 10.0 mi South 9.2 mph - N/A   Clear
2:15 PM 95.0 °F 14.0 °F 5% 29.90 in 10.0 mi WNW 10.4 mph - N/A   Clear
2:35 PM 93.2 °F 14.0 °F 5% 29.89 in 10.0 mi SSW 8.1 mph 16.1 mph N/A   Clear
2:55 PM 95.0 °F 15.8 °F 6% 29.88 in 10.0 mi WNW 4.6 mph - N/A   Clear
3:15 PM 95.0 °F 15.8 °F 6% 29.88 in 10.0 mi Calm Calm - N/A   Clear
3:35 PM 95.0 °F 17.6 °F 6% 29.86 in 10.0 mi SSW 6.9 mph - N/A   Clear
3:55 PM 95.0 °F 19.4 °F 6% 29.86 in 10.0 mi WSW 8.1 mph 16.1 mph N/A   Clear
4:15 PM 96.8 °F 19.4 °F 6% 29.85 in 10.0 mi WSW 10.4 mph 18.4 mph N/A   Clear
4:35 PM 95.0 °F 21.2 °F 7% 29.84 in 10.0 mi South 5.8 mph 18.4 mph N/A   Clear
4:55 PM 96.8 °F 23.0 °F 7% 29.84 in 10.0 mi South 3.5 mph 18.4 mph N/A   Clear
5:15 PM 96.8 °F 23.0 °F 7% 29.83 in 10.0 mi West 13.8 mph 17.3 mph N/A   Clear
5:35 PM 96.8 °F 26.6 °F 8% 29.82 in 10.0 mi West 9.2 mph 20.7 mph N/A   Clear
5:55 PM 96.8 °F 26.6 °F 8% 29.82 in 10.0 mi West 10.4 mph 18.4 mph N/A   Clear
6:15 PM 95.0 °F 28.4 °F 9% 29.82 in 10.0 mi WNW 9.2 mph 16.1 mph N/A   Clear
6:35 PM 95.0 °F 26.6 °F 9% 29.81 in 10.0 mi West 19.6 mph 26.5 mph N/A   Clear
6:55 PM 95.0 °F 28.4 °F 9% 29.82 in 10.0 mi West 13.8 mph 24.2 mph N/A   Clear
7:15 PM 93.2 °F 26.6 °F 9% 29.82 in 10.0 mi West 15.0 mph 24.2 mph N/A   Clear
7:35 PM 91.4 °F 24.8 °F 9% 29.82 in 10.0 mi WNW 10.4 mph 21.9 mph N/A   Clear
7:55 PM 91.4 °F 21.2 °F 8% 29.83 in 10.0 mi West 13.8 mph 20.7 mph N/A   Clear
8:15 PM 89.6 °F 19.4 °F 8% 29.84 in 10.0 mi WNW 11.5 mph - N/A   Clear
8:35 PM 87.8 °F 19.4 °F 8% 29.84 in 10.0 mi West 9.2 mph - N/A   Clear
8:55 PM 86.0 °F 19.4 °F 9% 29.85 in 10.0 mi West 8.1 mph - N/A   Clear
9:15 PM 84.2 °F 19.4 °F 9% 29.85 in 10.0 mi West 6.9 mph - N/A   Clear
9:35 PM 82.4 °F 17.6 °F 9% 29.86 in 10.0 mi West 8.1 mph - N/A   Clear
9:55 PM 80.6 °F 17.6 °F 10% 29.87 in 10.0 mi West 8.1 mph - N/A   Clear
10:15 PM 80.6 °F 17.6 °F 10% 29.87 in 10.0 mi West 8.1 mph - N/A   Clear
10:35 PM 78.8 °F 19.4 °F 11% 29.89 in 10.0 mi West 8.1 mph - N/A   Clear
10:55 PM 77.0 °F 19.4 °F 12% 29.89 in 10.0 mi West 6.9 mph - N/A   Clear
11:15 PM 78.8 °F 23.0 °F 13% 29.90 in 10.0 mi West 9.2 mph - N/A   Clear
11:35 PM 78.8 °F 19.4 °F 11% 29.89 in 10.0 mi West 8.1 mph - N/A   Clear
11:55 PM 75.2 °F 17.6 °F 11% 29.90 in 10.0 mi NW 5.8 mph - N/A   Clear